FW7705 Weather Reports


Display with metric or nautical units.
time (UTC)temp
F
wind
direction
speed
MPH
gust
MPH
rain 1hr
in
rain 24hr
in
rain mn
in
humidity
%
barometer
mb
20260901141010 69 204 2.0 2.0 0.00 0.23 0.23 99 1015.3
20260901140508 69 136 0.0 1.0 0.00 0.23 0.23 99 1015.2
20260901140003 69 135 1.0 1.0 0.00 0.23 0.23 99 1015.2
20260901135501 69 115 1.0 1.0 0.00 0.23 0.23 99 1015.5
20260901134957 69 166 1.0 1.0 0.00 0.23 0.23 99 1015.3
20260901134453 69 166 0.0 0.0 0.00 0.23 0.23 99 1015.3
20260901133948 68 137 0.0 0.0 0.00 0.23 0.23 99 1015.1
20260901133447 69 170 1.0 1.0 0.00 0.23 0.23 99 1015.5
20260901132946 68 171 0.0 1.0 0.00 0.23 0.23 99 1015.5
20260901132445 68 126 0.0 1.0 0.00 0.23 0.23 99 1015.6
20260901131945 68 154 0.0 0.0 0.00 0.23 0.23 99 1015.5
20260901131444 68 134 0.0 0.0 0.00 0.23 0.23 99 1015.8
20260901130940 68 134 0.0 1.0 0.00 0.23 0.23 99 1015.7
20260901130435 68 134 0.0 0.0 0.00 0.23 0.23 99 1015.5
20260901125932 68 111 0.0 0.0 0.00 0.23 0.23 99 1015.7
20260901125427 68 111 0.0 0.0 0.00 0.23 0.23 99 1015.5
20260901124926 68 111 0.0 0.0 0.00 0.23 0.23 99 1015.6
20260901124422 68 104 0.0 0.0 0.00 0.23 0.23 99 1015.7
20260901123917 68 136 1.0 1.0 0.00 0.23 0.23 99 1015.5
20260901123412 67 125 0.0 0.0 0.00 0.23 0.23 99 1016.1
20260901122909 67 123 1.0 1.0 0.00 0.23 0.23 99 1016.0
20260901122404 67 131 0.0 1.0 0.00 0.23 0.23 99 1016.1
20260901121904 67 127 0.0 1.0 0.00 0.23 0.23 99 1016.1
20260901121359 67 154 0.0 0.0 0.00 0.23 0.23 99 1016.3
20260901120854 67 141 1.0 1.0 0.00 0.23 0.23 99 1016.3
20260901120348 67 128 0.0 0.0 0.00 0.23 0.23 99 1016.0
20260901115844 67 133 0.0 0.0 0.00 0.23 0.23 99 1015.8
20260901115339 67 133 0.0 1.0 0.00 0.23 0.23 99 1016.1
20260901114838 67 185 1.0 1.0 0.07 0.23 0.23 99 1016.1
20260901114337 67 160 0.0 0.0 0.07 0.23 0.23 99 1015.9
20260901113835 67 100 1.0 1.0 0.12 0.22 0.22 99 1015.8
20260901113335 67 54 2.0 2.0 0.35 0.22 0.22 99 1016.0
20260901112830 67 111 0.0 0.0 0.59 0.20 0.20 99 1016.0
20260901112329 66 112 0.0 0.0 0.42 0.16 0.16 99 1015.9
20260901111825 66 109 2.0 2.0 0.07 0.10 0.10 99 1016.2
20260901111323 66 110 0.0 0.0 0.00 0.09 0.09 99 1015.9
20260901110822 66 63 0.0 1.0 0.00 0.09 0.09 99 1015.8
20260901110318 66 88 1.0 2.0 0.00 0.09 0.09 99 1015.7
20260901105814 66 99 1.0 1.0 0.00 0.09 0.09 99 1015.5
20260901105314 66 102 0.0 0.0 0.05 0.09 0.09 99 1015.2
20260901104810 66 102 1.0 1.0 0.05 0.09 0.09 99 1015.6
20260901104306 66 81 1.0 1.0 0.00 0.08 0.08 99 1015.7
20260901103802 65 169 0.0 0.0 0.00 0.08 0.08 99 1015.6
20260901103301 65 170 0.0 0.0 0.07 0.08 0.08 99 1015.7
20260901102756 65 170 0.0 0.0 0.12 0.08 0.08 99 1015.5
20260901102256 65 170 0.0 0.0 0.05 0.07 0.07 99 1015.6
20260901101752 65 170 0.0 0.0 0.00 0.06 0.06 99 1015.4
20260901101251 65 170 0.0 0.0 0.00 0.06 0.06 99 1015.3
20260901100751 66 170 0.0 0.0 0.00 0.06 0.06 99 1015.3
20260901100246 65 170 0.0 1.0 0.00 0.06 0.06 99 1015.4
20260901095744 65 170 0.0 0.0 0.00 0.06 0.06 99 1015.5
20260901095242 65 170 0.0 0.0 0.00 0.06 0.06 99 1015.6
20260901094736 65 170 0.0 0.0 0.00 0.06 0.06 99 1015.5
20260901094231 65 170 0.0 0.0 0.00 0.06 0.06 99 1015.6
20260901093727 65 169 0.0 1.0 0.00 0.06 0.06 99 1015.5
20260901093225 65 169 0.0 0.0 0.00 0.06 0.06 99 1015.3
20260901092722 65 169 0.0 0.0 0.00 0.06 0.06 99 1015.7
20260901092217 65 169 0.0 0.0 0.00 0.06 0.06 99 1015.8
20260901091713 65 169 1.0 1.0 0.00 0.06 0.06 99 1015.8
20260901091208 65 168 0.0 0.0 0.00 0.06 0.06 99 1015.6
20260901090702 65 168 0.0 0.0 0.00 0.06 0.06 99 1015.5
20260901090158 65 180 2.0 2.0 0.00 0.06 0.06 99 1015.8
20260901085654 65 151 1.0 1.0 0.00 0.06 0.06 99 1015.9
20260901085149 66 141 0.0 1.0 0.00 0.06 0.06 99 1015.8
20260901084645 66 141 0.0 0.0 0.00 0.06 0.06 99 1015.9
20260901084142 66 141 0.0 0.0 0.00 0.06 0.06 99 1016.0
20260901083641 66 141 0.0 0.0 0.00 0.06 0.06 99 1016.0
20260901083139 66 141 0.0 0.0 0.00 0.06 0.06 99 1016.2
20260901082634 66 141 0.0 0.0 0.00 0.06 0.06 99 1016.3
20260901082130 66 141 0.0 0.0 0.12 0.06 0.06 99 1016.2
20260901081625 66 141 0.0 0.0 0.24 0.06 0.06 99 1016.2
20260901081120 66 141 0.0 0.0 0.17 0.05 0.05 99 1016.4
20260901080619 66 141 0.0 0.0 0.12 0.03 0.03 99 1016.5
20260901080118 66 141 0.0 0.0 0.07 0.02 0.02 99 1016.5
20260901075614 66 141 0.0 0.0 0.00 0.01 0.01 99 1016.6
20260901075114 66 141 0.0 0.0 0.00 0.01 0.01 99 1016.3
20260901074613 66 141 0.0 0.0 0.00 0.01 0.01 99 1016.5
20260901074114 66 141 0.0 0.0 0.00 0.01 0.01 99 1016.3
20260901073610 66 141 0.0 0.0 0.00 0.01 0.01 99 1016.6
20260901073105 66 141 0.0 0.0 0.00 0.01 0.01 99 1016.5
20260901072600 66 141 0.0 0.0 0.00 0.01 0.01 99 1016.2
20260901072055 66 142 0.0 0.0 0.00 0.01 0.01 99 1016.1
20260901071555 66 142 0.0 0.0 0.00 0.01 0.01 99 1016.4
20260901071054 66 142 0.0 0.0 0.00 0.01 0.01 99 1016.5
20260901070549 66 142 0.0 0.0 0.00 0.01 0.01 99 1016.5
20260901070044 66 141 0.0 0.0 0.00 0.01 0.01 99 1016.5
20260901065539 66 141 0.0 0.0 0.00 0.01 0.01 99 1016.5
20260901065033 66 141 0.0 1.0 0.00 0.01 0.01 99 1016.6
20260901064530 66 141 0.0 0.0 0.00 0.01 0.01 99 1016.6
20260901064027 66 141 0.0 0.0 0.00 0.01 0.01 99 1016.6
20260901063523 66 141 0.0 0.0 0.00 0.01 0.01 99 1016.6
20260901063019 66 141 0.0 0.0 0.00 0.01 0.01 99 1016.5
20260901062515 66 141 0.0 0.0 0.00 0.01 0.01 99 1016.9
20260901062011 66 141 0.0 0.0 0.00 0.01 0.01 99 1016.9
20260901061507 66 141 0.0 0.0 0.00 0.01 0.01 99 1016.9
20260901061007 66 141 0.0 0.0 0.00 0.01 0.01 99 1016.8
20260901060501 66 141 0.0 0.0 0.00 0.01 0.01 99 1017.0
20260901060001 66 141 0.0 0.0 0.00 0.01 0.01 99 1017.0
20260901055457 66 141 0.0 0.0 0.00 0.01 0.01 99 1016.9
20260901054954 66 141 0.0 1.0 0.00 0.01 0.01 99 1017.2
20260901054451 66 140 1.0 2.0 0.00 0.01 0.01 99 1017.1
20260901053947 65 141 0.0 0.0 0.00 0.01 0.01 99 1017.2
20260901053442 65 141 0.0 0.0 0.00 0.01 0.01 99 1016.9
20260901052937 65 141 0.0 0.0 0.07 0.01 0.01 99 1017.4
20260901052433 65 141 0.0 0.0 0.07 0.01 0.01 99 1017.3
20260901051932 65 141 0.0 0.0 0.07 0.01 0.01 99 1017.3
20260901051428 66 141 0.0 1.0 0.00 0.00 0.00 99 1017.2
20260901050927 66 141 0.0 0.0 0.00 0.00 0.00 99 1017.2
20260901050423 66 141 0.0 0.0 0.00 0.00 0.00 99 1017.1
20260901045923 66 141 0.0 0.0 0.00 0.00 0.00 99 1017.5
20260901045418 66 141 0.0 0.0 0.00 0.00 0.00 99 1017.3
20260901044912 66 141 0.0 0.0 0.00 0.00 0.00 99 1017.4
20260901044409 66 141 1.0 1.0 0.00 0.00 0.00 99 1017.4
20260901043904 66 140 0.0 0.0 0.00 0.00 0.00 99 1017.2
20260901043401 66 140 0.0 0.0 0.00 0.00 0.00 99 1017.4
20260901042900 66 140 0.0 0.0 0.00 0.00 0.00 99 1017.5
20260901042354 66 141 0.0 0.0 0.00 0.00 0.00 99 1017.5
20260901041845 66 141 0.0 1.0 0.00 0.00 0.00 99 1017.6
20260901041340 66 141 0.0 0.0 0.00 0.00 0.00 99 1017.4
20260901040839 66 141 0.0 0.0 0.00 0.00 0.00 99 1017.5
20260901040339 66 141 0.0 0.0 0.00 0.00 0.00 99 1017.4
20260901035838 66 141 0.0 1.0 0.00 0.46 0.46 99 1017.2
20260901035337 66 141 0.0 0.0 0.00 0.46 0.46 99 1017.3
20260901034836 66 140 0.0 0.0 0.00 0.46 0.46 99 1017.4
20260901034331 66 142 1.0 1.0 0.00 0.46 0.46 99 1017.4
20260901033831 66 142 0.0 0.0 0.00 0.46 0.46 99 1017.4
20260901033330 66 142 0.0 0.0 0.00 0.46 0.46 99 1017.6
20260901032829 66 142 0.0 0.0 0.00 0.46 0.46 99 1017.6
20260901032328 66 142 0.0 0.0 0.00 0.46 0.46 99 1017.5
20260901031824 66 142 0.0 0.0 0.00 0.46 0.46 99 1017.6
20260901031320 66 142 0.0 1.0 0.00 0.46 0.46 99 1017.6
20260901030819 66 142 0.0 0.0 0.00 0.46 0.46 99 1017.8
20260901030314 66 142 0.0 1.0 0.00 0.46 0.46 99 1017.6
20260901025813 66 131 0.0 0.0 0.00 0.46 0.46 99 1017.6
20260901025308 66 131 0.0 0.0 0.00 0.46 0.46 99 1017.7
20260901024803 66 131 1.0 1.0 0.00 0.46 0.46 99 1017.6
20260901024303 66 132 0.0 1.0 0.00 0.46 0.46 99 1017.5
20260901023800 66 132 1.0 1.0 0.00 0.46 0.46 99 1017.6
20260901023256 66 131 0.0 0.0 0.00 0.46 0.46 99 1017.7
20260901022751 66 132 0.0 0.0 0.00 0.46 0.46 99 1017.8
20260901022247 66 132 0.0 0.0 0.00 0.46 0.46 99 1017.7
20260901021742 66 132 0.0 0.0 0.00 0.46 0.46 99 1017.8
20260901021237 66 131 0.0 0.0 0.00 0.46 0.46 99 1018.0
20260901020733 66 131 0.0 0.0 0.00 0.46 0.46 99 1017.8
20260901020228 66 131 0.0 0.0 0.00 0.46 0.46 99 1017.9
20260901015723 66 131 0.0 0.0 0.00 0.46 0.46 99 1017.7
20260901015218 66 131 0.0 0.0 0.00 0.46 0.46 99 1018.1
20260901014718 66 130 0.0 0.0 0.00 0.46 0.46 99 1018.1
20260901014214 66 127 0.0 1.0 0.00 0.46 0.46 99 1018.0
20260901013709 66 177 1.0 1.0 0.12 0.46 0.46 99 1018.0
20260901013205 66 175 0.0 0.0 0.17 0.46 0.46 99 1017.9
20260901012700 66 175 0.0 0.0 0.17 0.44 0.44 99 1018.2
20260901012155 66 175 0.0 1.0 0.12 0.43 0.43 99 1018.0
20260901011651 66 175 0.0 0.0 0.12 0.42 0.42 99 1018.1
20260901011150 66 175 0.0 0.0 0.07 0.41 0.41 99 1017.9
20260901010645 66 175 0.0 0.0 0.00 0.40 0.40 99 1017.9
20260901010145 66 175 0.0 0.0 0.00 0.40 0.40 99 1017.9
20260901005643 66 174 0.0 1.0 0.00 0.40 0.40 99 1018.0
20260901005139 66 174 0.0 0.0 0.00 0.40 0.40 99 1017.8
20260901004638 66 175 0.0 0.0 0.05 0.40 0.40 99 1017.7
20260901004133 66 175 0.0 0.0 0.05 0.40 0.40 99 1017.9
20260901003628 66 173 0.0 1.0 0.00 0.39 0.39 99 1017.9
20260901003127 66 174 1.0 1.0 0.00 0.39 0.39 99 1017.7
20260901002627 66 174 1.0 1.0 0.00 0.39 0.39 99 1017.6
20260901002122 66 160 0.0 0.0 0.00 0.39 0.39 99 1017.5
20260901001617 66 126 1.0 1.0 0.00 0.39 0.39 99 1017.5
20260901001113 66 134 0.0 0.0 0.07 0.39 0.39 99 1017.6
20260901000608 66 134 0.0 1.0 0.07 0.39 0.39 99 1017.4
20260901000103 66 117 0.0 0.0 0.00 0.38 0.38 99 1017.7
20260831235557 66 171 0.0 0.0 0.00 0.38 0.38 99 1017.6
20260831235053 66 129 0.0 1.0 0.05 0.38 0.38 99 1017.5
20260831234552 66 127 0.0 0.0 0.05 0.38 0.38 99 1017.8
20260831234048 66 145 0.0 0.0 0.00 0.37 0.37 99 1017.7
20260831233548 66 145 0.0 0.0 0.00 0.37 0.37 99 1017.8
20260831233044 66 133 0.0 0.0 0.00 0.37 0.37 99 1017.6
20260831232539 66 133 0.0 0.0 0.00 0.37 0.37 99 1017.6
20260831232035 66 88 0.0 0.0 0.00 0.37 0.37 99 1017.7
20260831231532 66 89 0.0 0.0 0.00 0.37 0.37 99 1017.9
20260831231027 66 162 0.0 0.0 0.00 0.37 0.37 99 1017.9
20260831230522 66 133 0.0 1.0 0.00 0.37 0.37 99 1017.9
20260831230023 66 159 0.0 0.0 0.00 0.37 0.37 99 1017.9
20260831225518 66 170 0.0 1.0 0.00 0.37 0.37 99 1017.7
20260831225018 66 138 0.0 0.0 0.07 0.37 0.37 99 1017.8
20260831224513 66 133 1.0 2.0 0.07 0.37 0.37 99 1018.0
20260831224008 66 132 1.0 1.0 0.00 0.36 0.36 99 1018.2
20260831223503 66 165 0.0 0.0 0.00 0.36 0.36 99 1018.1
20260831222959 66 155 0.0 1.0 0.00 0.36 0.36 99 1018.4
20260831222455 66 154 0.0 0.0 0.00 0.36 0.36 99 1018.2
20260831221954 66 154 0.0 1.0 0.00 0.36 0.36 99 1018.3
20260831221451 66 155 0.0 0.0 0.00 0.36 0.36 99 1018.3
20260831220946 66 155 0.0 0.0 0.00 0.36 0.36 99 1018.5
20260831220441 66 148 0.0 0.0 0.12 0.36 0.36 99 1018.4
20260831215936 66 148 0.0 0.0 0.24 0.36 0.36 99 1018.7
20260831215432 66 148 0.0 0.0 0.26 0.35 0.35 99 1018.8
20260831214928 66 148 0.0 0.0 0.12 0.33 0.33 99 1018.8
20260831214425 66 149 1.0 1.0 0.00 0.31 0.31 99 1018.9
20260831213921 66 136 0.0 0.0 0.05 0.31 0.31 99 1018.5
20260831213417 66 161 1.0 1.0 0.05 0.31 0.31 98 1018.7
20260831212917 66 150 0.0 0.0 0.07 0.30 0.30 98 1018.7
20260831212414 66 127 1.0 1.0 0.07 0.30 0.30 98 1018.7
20260831211913 66 152 1.0 1.0 0.05 0.29 0.29 98 1018.6
20260831211408 66 152 0.0 0.0 0.05 0.29 0.29 98 1018.6
20260831210908 66 152 0.0 0.0 0.12 0.29 0.29 98 1018.9
20260831210403 66 152 0.0 1.0 0.12 0.28 0.28 98 1018.8
20260831205859 66 151 0.0 0.0 0.05 0.27 0.27 98 1018.8
20260831205354 66 169 1.0 1.0 0.00 0.26 0.26 98 1018.8
20260831204849 66 166 1.0 1.0 0.07 0.26 0.26 98 1018.8
20260831204348 66 154 0.0 1.0 0.07 0.26 0.26 98 1018.6
20260831203848 66 145 1.0 1.0 0.00 0.25 0.25 98 1018.8
20260831203343 66 136 0.0 0.0 0.05 0.25 0.25 97 1018.9
20260831202841 66 107 0.0 0.0 0.05 0.25 0.25 98 1018.9
20260831202336 66 191 1.0 2.0 0.00 0.24 0.24 97 1018.8
20260831201836 66 158 0.0 0.0 0.00 0.24 0.24 98 1018.8
20260831201334 66 160 0.0 1.0 0.00 0.24 0.24 97 1018.8
20260831200831 66 164 0.0 0.0 0.00 0.24 0.24 97 1019.0
20260831200325 66 105 1.0 1.0 0.00 0.24 0.24 97 1019.0
20260831195821 66 176 0.0 0.0 0.00 0.24 0.24 97 1019.1
20260831195316 66 135 0.0 0.0 0.00 0.24 0.24 97 1018.8
20260831194812 66 67 1.0 1.0 0.00 0.24 0.24 97 1019.1
20260831194307 66 118 0.0 1.0 0.07 0.24 0.24 98 1018.9
20260831193806 66 155 0.0 0.0 0.07 0.24 0.24 98 1019.4
20260831193301 65 153 1.0 1.0 0.00 0.23 0.23 98 1019.1
20260831192756 65 122 0.0 0.0 0.00 0.23 0.23 98 1019.0
20260831192251 65 156 1.0 1.0 0.00 0.23 0.23 98 1019.1
20260831191747 65 159 0.0 0.0 0.05 0.23 0.23 97 1019.3
20260831191243 65 183 2.0 2.0 0.05 0.23 0.23 97 1019.0
20260831190739 65 187 1.0 1.0 0.00 0.22 0.22 97 1019.4
20260831190239 65 162 0.0 1.0 0.00 0.22 0.22 97 1019.4
20260831185738 65 120 1.0 1.0 0.00 0.22 0.22 97 1019.5
20260831185234 66 150 1.0 1.0 0.00 0.22 0.22 96 1019.4
20260831184733 66 256 2.0 4.0 0.00 0.22 0.22 96 1019.4
20260831184229 66 92 0.0 0.0 0.00 0.22 0.22 96 1019.5
20260831183724 66 146 1.0 1.0 0.00 0.22 0.22 96 1019.4
20260831183223 66 262 3.0 3.0 0.00 0.22 0.22 96 1019.6
20260831182722 66 127 0.0 1.0 0.00 0.22 0.22 96 1019.8
20260831182218 65 277 2.0 3.0 0.00 0.22 0.22 96 1019.7
20260831181718 65 136 2.0 2.0 0.00 0.22 0.22 96 1020.0
20260831181214 65 173 0.0 0.0 0.00 0.22 0.22 96 1020.0
20260831180708 65 172 0.0 0.0 0.00 0.22 0.22 96 1020.0
20260831180203 65 159 1.0 1.0 0.00 0.22 0.22 96 1020.1
20260831175702 65 219 3.0 3.0 0.00 0.22 0.22 96 1020.0
20260831175159 65 133 0.0 0.0 0.00 0.22 0.22 96 1020.0
20260831174659 65 167 1.0 1.0 0.00 0.22 0.22 96 1020.2
20260831174155 65 130 0.0 0.0 0.07 0.22 0.22 96 1020.3
20260831173653 65 194 2.0 3.0 0.07 0.22 0.22 96 1020.2
20260831173149 65 141 2.0 2.0 0.07 0.21 0.21 96 1020.4
20260831172649 65 282 2.0 3.0 0.12 0.21 0.21 96 1020.5
20260831172144 65 106 0.0 1.0 0.05 0.20 0.20 96 1020.4
20260831171639 65 337 4.0 4.0 0.07 0.19 0.19 96 1020.3
20260831171136 65 82 2.0 2.0 0.12 0.19 0.19 96 1020.2
20260831170632 65 135 0.0 1.0 0.12 0.18 0.18 96 1020.4
20260831170129 65 123 0.0 0.0 0.12 0.17 0.17 96 1020.6
20260831165625 65 165 0.0 1.0 0.12 0.16 0.16 96 1020.6
20260831165121 65 163 0.0 0.0 0.17 0.16 0.16 95 1020.6
20260831164617 65 60 1.0 2.0 0.05 0.14 0.14 95 1020.7
20260831164112 66 295 3.0 3.0 0.07 0.13 0.13 95 1020.7
20260831163607 66 126 0.0 0.0 0.12 0.13 0.13 95 1020.7
20260831163103 65 126 0.0 0.0 0.12 0.12 0.12 95 1020.9
20260831162602 65 186 0.0 0.0 0.19 0.11 0.11 95 1020.8
20260831162100 65 186 0.0 0.0 0.24 0.10 0.10 95 1020.9
20260831161556 65 186 0.0 0.0 0.24 0.08 0.08 94 1020.7
20260831161052 65 186 0.0 0.0 0.24 0.06 0.06 95 1020.9
20260831160551 65 186 0.0 0.0 0.19 0.04 0.04 93 1021.1
20260831160048 66 187 0.0 0.0 0.12 0.02 0.02 92 1021.1
20260831155547 66 187 0.0 0.0 0.12 0.02 0.02 89 1021.1
20260831155043 66 187 0.0 0.0 0.00 0.00 0.00 87 1021.0
20260831154539 66 187 0.0 0.0 0.00 0.00 0.00 87 1021.1
20260831154038 66 187 0.0 0.0 0.00 0.00 0.00 87 1021.0
20260831153538 67 187 0.0 0.0 0.00 0.00 0.00 88 1021.1
20260831153035 67 148 0.0 1.0 0.00 0.00 0.00 87 1021.1
20260831152530 67 148 1.0 1.0 0.00 0.00 0.00 86 1020.8
20260831152026 66 166 1.0 1.0 0.00 0.00 0.00 87 1020.9
20260831151525 66 185 0.0 0.0 0.00 0.00 0.00 87 1020.7
20260831151025 67 158 0.0 0.0 0.00 0.00 0.00 87 1021.0
20260831150520 67 140 1.0 1.0 0.00 0.00 0.00 87 1020.7
20260831150016 67 233 2.0 3.0 0.00 0.00 0.00 85 1020.5
20260831145510 67 94 1.0 1.0 0.00 0.00 0.00 86 1020.6
20260831145007 67 135 0.0 0.0 0.00 0.00 0.00 86 1020.5
20260831144502 66 115 0.0 1.0 0.00 0.00 0.00 90 1020.8
20260831143957 66 268 1.0 1.0 0.00 0.00 0.00 87 1020.8
20260831143451 66 251 0.0 1.0 0.00 0.00 0.00 89 1020.7
20260831142947 66 176 2.0 3.0 0.00 0.00 0.00 87 1020.8
20260831142443 66 178 1.0 2.0 0.00 0.00 0.00 87 1020.7
20260831141938 66 156 0.0 1.0 0.00 0.00 0.00 89 1020.5
20260831141431 66 188 1.0 2.0 0.00 0.00 0.00 90 1020.5